Location: Belfast
(54.5830°N, 5.9330°W)
Time: 12:58:25
(UTC+01:00)

ISS - Pass Details

Date: 26 May 2018
Orbit: 402 x 407 km, 51.6° (Epoch: 20 May)

Event Time Altitude Azimuth Distance (km) Brightness Sun altitude
Rises 00:08:56 0° 266° (W) 2,321 0.2 -12.8°
Reaches altitude 10° 00:11:03 10° 261° (W) 1,460 -0.9 -12.9°
Maximum altitude 00:14:13 49° 186° (S) 532 -3.7 -13.0°
Enters shadow 00:17:03 12° 111° (ESE) 1,326 -1.6 -13.1°
